Regional Weather Roundup
Issued by NWS

Home | Current Version | Previous Version | Text Only | Print | Product List | Glossary Off
Versions: 1 2 3 4 5 6 7 8 9 10 11 12 13 14 15 16 17 18 19 20 21 22 23 24 25 26 27 28 29 30 31 32 33 34 35 36 37 38 39 40 41 42 43 44 45 46 47 48 49 50

464
ASUS45 KBOI 101010
RWRID

IDAHO REGIONAL WEATHER ROUNDUP
NATIONAL WEATHER SERVICE BOISE ID
300 AM MST WED FEB 10 2016

NOTE: "FAIR" INDICATES FEW OR NO CLOUDS BELOW 12000 FEET
WITH NO SIGNIFICANT WEATHER AND/OR OBSTRUCTIONS TO VISIBILITY

IDZ012-014-101100-
SOUTHWEST IDAHO


CITY           SKY/WX    TMP DP  RH WIND       PRES   REMARKS
BOISE          FOG       29  29 100 CALM      30.42F VSB 1/4
CALDWELL       FOG       28  28 100 CALM      30.45S VSB 1/4
MOUNTAIN HOME  MOCLDY    28  25  89 E7        30.43S WCI  21
$$

IDZ016-017-101100-
SOUTHCENTRAL IDAHO


CITY           SKY/WX    TMP DP  RH WIND       PRES   REMARKS
BURLEY         PTCLDY    24  22  91 N3        30.37F
JEROME         PTCLDY    24  19  81 NE17      30.39R WCI  11
TWIN FALLS     PTCLDY    25  23  92 SE5       30.39R WCI  19
$$

IDZ019>023-101100-
SOUTHEAST IDAHO


CITY           SKY/WX    TMP DP  RH WIND       PRES   REMARKS
IDAHO FALLS    CLOUDY    10   7  87 N8        30.43R WCI  -2
POCATELLO      CLOUDY    15  13  91 NE3       30.43R
REXBURG        CLOUDY     7   4  87 CALM      30.41S FOG
$$

IDZ006-010-011-018-031-032-101100-
CENTRAL IDAHO MOUNTAINS


CITY           SKY/WX    TMP DP  RH WIND       PRES   REMARKS
MCCALL         FOG       15  12  88 CALM      30.34F VSB 1/2
HAILEY         PTCLDY    23  18  80 NW9       30.40S WCI  13
STANLEY          N/A      6   1  80 E7        30.41S WCI  -6
SALMON         CLOUDY     7   1  78 CALM      30.43S
CHALLIS        FOG        9   7  92 CALM      30.40S VSB 1/4
$$

IDZ002-004-006-007-026-101100-
NORTHERN IDAHO


CITY           SKY/WX    TMP DP  RH WIND       PRES   REMARKS
LEWISTON       PTCLDY    40  33  76 E3        30.27S
LOWELL           N/A     33  31  92 CALM      30.37R
COEUR D`ALENE  CLEAR     30  27  86 CALM      30.24R
MULLAN PASS    CLEAR     36  27  69 VRB5      30.23S WCI  32
$$




USA.gov is the U.S. government's official web portal to all federal, state and local government web resources and services.